TimeCDT,TemperatureF,Dew PointF,Humidity,Sea Level PressureIn,VisibilityMPH,Wind Direction,Wind SpeedMPH,Gust SpeedMPH,PrecipitationIn,Events,Conditions,WindDirDegrees,DateUTC
12:44 AM,69.8,68.0,94,29.92,7.0,ESE,3.5,-,N/A,,Clear,110,2013-10-01 05:44:00
1:40 AM,68.0,68.0,100,29.92,7.0,Calm,Calm,-,N/A,,Clear,0,2013-10-01 06:40:00
2:43 AM,68.0,68.0,100,29.89,7.0,Calm,Calm,-,N/A,,Clear,0,2013-10-01 07:43:00
3:42 AM,66.2,66.2,100,29.92,7.0,Calm,Calm,-,N/A,,Clear,0,2013-10-01 08:42:00
4:47 AM,66.2,66.2,100,29.89,7.0,Calm,Calm,-,N/A,,Clear,0,2013-10-01 09:47:00
5:41 AM,66.2,66.2,100,29.90,7.0,Calm,Calm,-,N/A,,Clear,0,2013-10-01 10:41:00
6:42 AM,66.2,66.2,100,29.89,8.0,East,3.5,-,N/A,,Clear,90,2013-10-01 11:42:00
7:48 AM,69.8,69.8,100,29.93,7.0,Calm,Calm,-,N/A,,Clear,0,2013-10-01 12:48:00
8:44 AM,78.8,71.6,78,29.94,7.0,Calm,Calm,-,N/A,,Clear,0,2013-10-01 13:44:00
9:45 AM,80.6,71.6,74,29.97,7.0,NNE,4.6,-,N/A,,Partly Cloudy,30,2013-10-01 14:45:00
10:44 AM,82.4,71.6,70,29.94,7.0,NE,8.1,-,N/A,,Scattered Clouds,50,2013-10-01 15:44:00
11:40 AM,82.4,69.8,66,29.94,8.0,NNE,8.1,-,N/A,,Scattered Clouds,30,2013-10-01 16:40:00
12:40 PM,84.2,71.6,66,29.89,8.0,ENE,8.1,-,N/A,,Mostly Cloudy,60,2013-10-01 17:40:00
1:41 PM,84.2,71.6,66,29.92,8.0,ENE,9.2,-,N/A,,Mostly Cloudy,60,2013-10-01 18:41:00
2:41 PM,84.2,71.6,66,29.89,8.0,ENE,9.2,-,N/A,,Scattered Clouds,60,2013-10-01 19:41:00
3:50 PM,82.4,71.6,70,29.91,8.0,NE,11.5,-,N/A,,Scattered Clouds,50,2013-10-01 20:50:00
4:49 PM,82.4,69.8,66,29.87,8.0,NE,11.5,-,N/A,,Partly Cloudy,50,2013-10-01 21:49:00
5:43 PM,80.6,71.6,74,29.87,8.0,ENE,6.9,-,N/A,,Clear,70,2013-10-01 22:43:00
7:01 PM,77.0,71.6,83,29.86,7.0,NE,4.6,-,N/A,,Partly Cloudy,50,2013-10-02 00:01:00
7:41 PM,75.2,71.6,89,29.89,7.0,Calm,Calm,-,N/A,,Partly Cloudy,0,2013-10-02 00:41:00
8:46 PM,75.2,71.6,89,29.91,7.0,ENE,4.6,-,N/A,,Partly Cloudy,60,2013-10-02 01:46:00
9:40 PM,75.2,71.6,89,29.95,7.0,ENE,3.5,-,N/A,,Partly Cloudy,60,2013-10-02 02:40:00
10:41 PM,77.0,73.4,89,29.93,7.0,NE,9.2,-,N/A,,Partly Cloudy,50,2013-10-02 03:41:00
11:42 PM,75.2,71.6,89,29.93,7.0,ENE,4.6,-,N/A,,Partly Cloudy,70,2013-10-02 04:42:00